Temp
68 61 56 61 63 65 64 61 61 69 76 68 67 73 74 73 73 71 66 68 74 70 72 71 71 71 69 70 70 70 71 70 70 68 66 65 62 62 61 62 63 64 64 64
63 56 65 70 69 67 65 62 63 69 74 69 67 68 70 75 72 71 66 65 66 65 66 68 69 66 67 67 67 67 68 67 67 67 65 65 63 62 61 62 63 62 63 62
59 65 73 71 68 66 65 61 63 64 68 68 65 63 67 68 71 72 69 68 68 67 65 64 64 63 65 66 66 65 65 65 65 65 65 64 64 64 62 60 58 60 62 61
62 71 71 69 68 69 59 70 71 68 62 54 65 51 62 61 65 66 65 65 65 64 65 65 62 61 63 64 65 63 63 63 64 65 64 64 61 59 58 58 58 58 59 60
63 65 66 65 69 72 66 73 69 66 58 53 57 52 59 63 59 62 62 62 63 64 65 64 63 62 64 64 64 63 61 61 60 60 59 58 55 55 54 54 54 55 54 57
66 73 71 71 76 74 76 69 63 58 53 47 54 54 52 59 61 62 64 65 65 65 65 64 63 62 62 63 60 59 59 57 58 57 57 56 54 54 53 52 52 51 51 52
64 67 70 76 68 69 67 56 45 44 44 45 56 54 56 64 67 67 63 64 65 65 63 61 60 59 59 58 58 58 56 55 55 56 55 55 53 53 51 50 49 49 49 49
53 54 68 74 68 66 61 58 45 40 40 47 58 51 58 65 71 70 68 65 65 63 62 61 60 59 58 58 58 57 55 54 55 55 54 53 52 51 50 50 49 48 48 48
52 55 71 73 72 70 61 55 60 52 47 46 50 56 65 66 65 65 63 64 62 62 62 62 61 60 59 57 57 56 55 54 54 54 53 52 51 51 50 49 49 48 48 53
60 53 70 72 71 70 66 68 54 47 40 38 48 52 53 59 61 63 62 61 62 62 62 61 61 60 59 58 57 56 56 54 54 53 52 52 51 51 50 49 49 49 49 49
68 56 63 65 61 62 60 56 55 53 48 42 40 47 60 64 65 64 64 64 63 62 62 62 60 59 59 58 56 55 55 54 53 53 52 51 51 51 50 50 50 49 49 49
63 56 55 61 70 71 67 64 57 47 47 47 46 47 66 68 68 68 66 65 64 63 62 60 60 59 58 57 56 55 54 54 54 53 52 52 51 51 50 50 49 50 49 50
62 51 48 53 60 63 62 64 63 54 50 49 45 48 65 67 64 65 64 64 63 62 62 62 63 61 59 57 57 56 54 53 53 53 52 51 50 50 50 49 50 50 50 50
61 54 52 51 58 59 58 63 64 59 45 49 51 56 60 59 61 64 65 62 62 62 62 62 62 61 60 60 57 55 53 53 53 53 51 50 50 51 50 50 50 50 50 49
59 50 52 64 67 67 65 65 65 58 58 53 58 57 61 58 60 63 63 62 62 62 62 61 61 60 59 56 54 54 52 52 52 53 51 50 51 51 50 50 50 50 49 50
59 49 53 56 64 66 63 65 65 63 62 60 61 59 63 60 63 61 63 64 63 62 63 62 61 61 58 57 54 54 52 52 52 52 52 52 52 52 51 50 50 49 49 49
54 52 48 46 57 60 54 64 64 63 65 63 57 61 60 58 61 63 64 66 63 63 63 63 61 61 58 56 55 51 52 52 52 52 53 53 52 53 52 51 50 49 48 47
53 50 50 45 50 43 61 68 70 65 67 64 61 61 62 62 63 65 67 63 63 65 64 63 62 57 54 52 51 51 52 52 52 52 52 54 53 53 51 50 48 46 45 46
55 48 45 45 43 53 61 64 65 63 62 67 62 64 64 63 64 59 65 67 67 65 64 61 57 54 53 52 51 51 50 51 52 53 53 54 53 52 51 49 47 46 45 45
55 52 50 45 41 41 54 66 67 66 53 61 66 64 63 62 52 52 62 64 61 59 58 56 55 54 52 49 50 50 50 50 51 53 53 54 52 51 49 47 47 45 45 46
44 44 46 46 43 49 60 64 67 52 55 61 67 66 60 57 58 58 60 58 58 57 55 55 54 52 50 50 50 49 49 49 52 54 54 53 52 50 49 47 45 46 45 45
46 42 41 42 40 42 61 62 58 57 54 61 59 59 58 59 60 60 58 56 56 55 55 54 52 49 49 50 50 48 49 51 53 52 52 51 50 51 52 47 46 46 44 44
44 52 47 48 46 54 56 61 61 58 59 60 61 62 63 60 59 59 57 57 56 55 53 53 51 48 48 49 50 49 50 52 52 51 49 49 49 50 49 46 46 45 42 41
52 53 49 50 54 56 59 64 66 63 63 65 66 65 63 59 59 58 58 56 55 54 52 52 50 48 47 49 52 51 52 53 51 49 48 47 47 46 47 47 45 43 41 41
49 50 47 50 54 58 60 63 68 66 67 67 67 67 65 62 59 59 58 56 55 54 52 52 49 48 49 51 51 52 53 52 50 49 48 47 46 45 45 46 44 44 42 42
51 48 46 45 52 52 53 58 65 65 64 67 66 64 64 62 60 60 58 57 55 53 52 50 49 50 51 52 52 53 53 52 49 47 47 46 45 44 44 44 45 42 43 43
MSLP
1009.87 1010.54 1010.87 1011.11 1011.34 1011.29 1011.23 1010.94 1010.20 1008.97 1007.84 1007.46 1006.28 1006.64 1006.59 1007.36 1008.81 1009.89 1010.30 1010.40 1010.97 1011.95 1011.84 1012.60 1013.67 1013.33 1013.62 1014.43 1014.84 1014.98 1014.61 1015.28 1015.59 1015.00 1016.89 1018.02 1018.42 1018.99 1019.37 1019.29 1019.17 1019.34 1019.29 1019.36
1010.48 1010.37 1010.36 1010.57 1010.73 1011.04 1011.01 1010.83 1009.78 1008.56 1007.64 1007.16 1006.87 1006.92 1006.66 1007.04 1007.97 1008.88 1010.22 1011.17 1011.64 1012.15 1012.50 1012.94 1013.53 1014.33 1014.32 1015.13 1015.34 1015.52 1015.55 1015.88 1016.29 1016.40 1017.17 1017.78 1018.17 1019.15 1019.35 1019.50 1019.46 1019.41 1019.35 1019.41
1010.26 1009.81 1009.79 1010.23 1010.19 1010.50 1010.20 1010.08 1009.14 1008.57 1007.60 1007.27 1007.34 1007.84 1007.69 1008.71 1009.00 1009.81 1010.78 1011.26 1012.18 1011.62 1012.46 1013.16 1014.15 1014.25 1014.79 1015.40 1015.93 1016.17 1016.44 1016.97 1017.11 1017.35 1017.72 1018.00 1018.41 1019.13 1019.57 1019.69 1019.90 1019.66 1019.51 1019.38
1009.89 1009.27 1009.47 1009.52 1009.43 1009.56 1009.45 1008.62 1008.47 1008.27 1008.76 1008.82 1008.57 1009.65 1008.84 1010.25 1010.54 1011.08 1011.66 1012.43 1012.70 1013.10 1013.76 1014.24 1014.82 1015.01 1016.00 1016.18 1016.69 1017.16 1017.34 1017.77 1017.96 1018.36 1018.31 1018.48 1018.94 1019.49 1019.76 1019.99 1020.23 1019.78 1019.47 1019.41
1008.94 1008.74 1008.81 1008.87 1008.44 1008.29 1008.48 1008.01 1008.31 1008.41 1009.28 1009.76 1009.95 1010.30 1009.48 1010.33 1011.62 1012.02 1012.64 1013.31 1013.21 1013.26 1013.85 1014.61 1015.31 1015.65 1016.18 1016.66 1017.23 1017.64 1017.97 1018.30 1018.74 1018.58 1018.57 1019.08 1019.57 1019.93 1020.40 1020.37 1020.09 1020.08 1020.01 1019.83
1008.89 1008.26 1008.27 1007.69 1007.32 1007.56 1007.63 1007.86 1008.65 1009.61 1010.31 1010.54 1010.19 1010.66 1010.31 1009.98 1010.62 1011.97 1012.83 1013.40 1013.80 1013.67 1014.16 1014.90 1015.55 1015.80 1016.51 1016.95 1017.93 1018.57 1018.76 1019.07 1019.13 1019.23 1019.57 1019.71 1020.17 1020.42 1020.29 1020.68 1020.92 1020.97 1020.95 1020.90
1008.93 1008.18 1007.76 1007.62 1007.55 1007.20 1007.63 1008.97 1010.22 1011.51 1011.92 1011.28 1010.51 1010.27 1009.61 1008.66 1009.41 1010.06 1011.87 1013.44 1014.30 1014.51 1014.75 1015.63 1015.99 1016.63 1017.11 1017.84 1018.50 1018.97 1019.20 1019.56 1019.64 1019.82 1019.95 1019.96 1020.03 1020.39 1020.98 1021.30 1021.52 1021.56 1021.48 1021.33
1009.38 1008.60 1007.25 1006.83 1006.98 1007.14 1007.81 1008.80 1010.42 1011.94 1012.79 1011.71 1010.62 1010.05 1009.38 1008.41 1007.83 1009.26 1011.21 1012.71 1013.84 1014.53 1015.03 1015.62 1015.85 1016.69 1017.27 1018.00 1018.64 1019.18 1019.58 1019.84 1019.82 1019.65 1019.94 1020.49 1020.78 1021.09 1021.40 1021.56 1021.64 1021.61 1021.47 1021.18
1008.83 1008.03 1006.78 1006.38 1006.34 1006.96 1007.60 1008.34 1009.02 1011.02 1012.25 1012.16 1010.96 1010.10 1009.87 1009.96 1010.19 1010.97 1012.21 1013.45 1014.27 1014.55 1014.96 1015.55 1015.94 1016.94 1017.44 1018.11 1018.74 1019.25 1019.41 1019.51 1019.84 1020.32 1020.68 1021.19 1021.39 1021.44 1021.57 1021.58 1021.52 1021.43 1021.24 1020.92
1007.98 1007.98 1006.95 1006.14 1006.39 1006.30 1006.77 1007.09 1009.39 1011.28 1012.42 1012.69 1011.06 1010.27 1010.08 1010.51 1010.83 1011.80 1012.63 1013.28 1014.07 1014.70 1015.19 1015.93 1016.57 1017.44 1017.87 1018.30 1018.81 1019.45 1019.86 1020.46 1020.67 1020.97 1021.14 1021.40 1021.72 1021.58 1021.50 1021.48 1021.43 1021.32 1021.17 1020.91
1007.26 1008.03 1006.84 1006.59 1006.37 1006.52 1006.82 1007.33 1008.66 1010.14 1011.37 1012.08 1011.30 1010.15 1008.07 1008.44 1009.21 1009.96 1011.29 1012.20 1013.22 1014.55 1015.26 1016.06 1016.95 1017.89 1018.25 1018.63 1019.29 1019.96 1020.48 1020.87 1021.02 1021.08 1021.30 1021.30 1021.66 1021.52 1021.36 1021.29 1021.23 1021.14 1020.90 1020.65
1007.48 1007.72 1007.50 1006.51 1005.63 1005.65 1006.25 1006.99 1007.96 1009.55 1010.88 1011.16 1010.64 1008.95 1007.35 1007.46 1008.35 1009.10 1010.60 1012.21 1013.40 1014.19 1014.76 1015.51 1016.33 1017.51 1019.11 1019.35 1019.55 1020.01 1020.45 1020.72 1020.81 1020.93 1021.07 1021.23 1021.42 1021.39 1021.25 1021.13 1021.04 1020.73 1020.56 1020.11
1008.62 1008.20 1008.02 1006.61 1005.85 1005.41 1005.61 1005.89 1006.63 1007.88 1008.87 1009.65 1010.09 1008.42 1007.66 1007.59 1008.70 1009.75 1010.50 1011.87 1012.94 1013.51 1014.14 1014.82 1015.72 1015.69 1017.17 1019.06 1019.58 1020.01 1020.39 1020.56 1020.78 1020.66 1020.89 1021.19 1021.29 1021.16 1021.00 1020.86 1020.61 1020.34 1020.09 1019.85
1008.21 1008.01 1007.53 1006.23 1005.23 1005.08 1005.13 1005.04 1005.41 1006.46 1008.08 1008.51 1008.31 1008.07 1007.70 1008.11 1008.38 1009.45 1010.62 1011.11 1011.78 1012.58 1013.23 1014.40 1015.68 1015.96 1016.91 1018.01 1019.19 1019.90 1020.28 1020.37 1020.41 1020.38 1020.92 1021.16 1021.03 1020.73 1020.49 1020.29 1020.14 1019.94 1019.69 1019.63
1008.48 1008.17 1007.20 1005.40 1004.51 1004.09 1004.04 1004.36 1004.79 1005.65 1005.79 1006.85 1006.92 1007.43 1006.99 1007.39 1007.74 1008.17 1009.05 1010.60 1011.47 1012.40 1013.37 1014.32 1014.92 1015.55 1016.73 1017.82 1018.93 1019.56 1019.96 1020.12 1019.96 1020.42 1020.73 1020.78 1020.48 1020.24 1020.06 1019.98 1019.82 1019.63 1019.65 1019.63
1008.27 1008.05 1007.50 1006.16 1004.21 1003.63 1003.47 1003.46 1003.55 1004.16 1004.83 1005.48 1005.54 1006.18 1005.95 1007.03 1008.18 1009.03 1009.32 1010.25 1011.09 1011.90 1013.11 1014.15 1014.70 1015.53 1016.69 1017.51 1018.52 1019.30 1019.51 1019.65 1019.99 1020.29 1020.31 1020.20 1020.12 1020.00 1019.95 1019.78 1019.71 1019.64 1019.48 1019.31
1008.53 1008.16 1008.09 1007.27 1005.94 1003.86 1003.56 1001.98 1002.63 1003.19 1003.56 1004.31 1005.04 1005.39 1006.27 1007.73 1008.14 1008.61 1009.44 1009.91 1010.74 1011.74 1012.74 1013.46 1014.39 1015.21 1016.39 1017.35 1018.22 1018.78 1019.20 1019.71 1019.97 1020.00 1020.02 1020.03 1019.88 1019.94 1019.84 1019.77 1019.64 1019.55 1019.41 1019.22
1008.29 1008.76 1008.72 1007.95 1007.01 1004.82 1001.51 1001.25 1001.56 1002.28 1002.76 1003.52 1004.66 1005.24 1005.71 1006.32 1007.64 1008.46 1008.57 1009.26 1010.38 1011.16 1012.33 1013.30 1014.28 1015.44 1016.50 1017.58 1018.17 1018.75 1019.46 1019.77 1019.82 1020.01 1020.02 1019.96 1019.96 1019.91 1019.76 1019.69 1019.72 1019.59 1019.36 1019.24
1007.76 1008.72 1009.05 1008.35 1007.32 1005.12 1002.52 1001.64 1001.36 1001.99 1002.44 1002.70 1004.25 1005.59 1005.97 1006.99 1008.20 1009.10 1009.07 1009.53 1009.94 1010.64 1012.12 1013.35 1014.56 1015.74 1016.88 1017.73 1018.41 1019.12 1019.64 1019.73 1019.93 1019.95 1019.99 1020.00 1019.88 1019.87 1019.71 1019.78 1019.67 1019.34 1019.29 1019.13
1007.25 1007.79 1008.89 1008.73 1007.64 1005.37 1002.78 1001.91 1001.76 1001.95 1002.58 1003.12 1003.72 1005.28 1005.61 1006.44 1008.57 1009.45 1009.07 1010.15 1011.03 1011.88 1013.08 1014.06 1015.36 1016.52 1017.60 1018.36 1018.83 1019.35 1019.68 1019.83 1019.96 1019.95 1019.92 1019.73 1019.72 1019.62 1019.71 1019.57 1019.38 1019.17 1019.01 1018.85
1007.60 1008.01 1008.30 1007.94 1007.41 1005.14 1003.14 1002.09 1002.10 1002.82 1002.52 1003.19 1004.00 1004.85 1005.61 1006.56 1007.48 1009.18 1010.04 1011.18 1011.74 1012.57 1013.75 1014.91 1016.10 1017.34 1018.11 1018.69 1019.09 1019.52 1019.75 1019.94 1019.79 1019.64 1019.56 1019.58 1019.46 1019.42 1019.32 1019.30 1019.15 1018.97 1018.82 1018.60
1007.18 1007.58 1007.64 1007.55 1007.01 1005.31 1003.31 1002.67 1002.39 1002.25 1002.73 1002.92 1004.19 1005.10 1006.03 1006.79 1008.24 1009.68 1010.65 1011.86 1013.09 1013.70 1014.83 1015.93 1016.94 1018.06 1018.45 1018.89 1019.16 1019.66 1019.81 1019.63 1019.51 1019.59 1019.63 1019.57 1019.39 1019.25 1019.16 1019.25 1018.96 1018.66 1018.73 1018.78
1006.74 1005.94 1005.97 1005.67 1004.70 1003.88 1002.97 1002.71 1002.14 1002.12 1002.52 1003.41 1003.70 1005.39 1005.87 1007.56 1008.95 1010.27 1011.54 1012.77 1013.81 1014.39 1015.69 1016.45 1017.39 1018.35 1018.67 1018.91 1019.18 1019.54 1019.51 1019.40 1019.49 1019.59 1019.69 1019.67 1019.35 1019.16 1019.16 1019.25 1019.03 1018.66 1018.69 1018.59
1006.24 1005.42 1005.22 1005.09 1003.67 1003.25 1003.03 1002.61 1002.17 1002.92 1003.16 1003.43 1003.78 1004.85 1006.20 1008.19 1009.34 1010.13 1011.12 1013.92 1014.50 1015.17 1016.28 1017.13 1017.69 1018.56 1018.81 1018.78 1019.09 1019.24 1019.30 1019.23 1019.42 1019.65 1019.70 1019.60 1019.52 1019.43 1019.03 1018.73 1018.66 1018.84 1018.65 1018.61
1007.14 1006.15 1005.33 1004.40 1003.07 1002.97 1002.98 1002.54 1001.69 1003.01 1003.79 1004.16 1004.60 1005.14 1006.01 1007.54 1009.57 1010.13 1011.59 1013.04 1014.46 1015.67 1016.72 1017.32 1017.77 1018.28 1018.59 1018.68 1018.94 1019.01 1019.07 1019.13 1019.48 1019.72 1019.75 1019.63 1019.45 1019.38 1019.13 1018.73 1018.78 1018.83 1018.67 1018.58
1007.12 1007.15 1005.82 1005.01 1004.34 1004.06 1003.74 1002.80 1002.49 1002.36 1002.83 1004.53 1005.21 1006.23 1006.53 1007.74 1009.57 1010.87 1012.21 1013.38 1014.52 1015.90 1016.56 1017.19 1017.61 1018.00 1018.36 1018.65 1018.76 1018.92 1018.91 1019.05 1019.48 1019.74 1019.72 1019.59 1019.44 1019.31 1019.17 1018.91 1018.65 1018.61 1018.53 1018.46
Wind_Speed
5 2 7 9 7 7 5 5 9 14 16 8 9 13 11 18 12 7 9 7 16 16 13 7 5 7 14 13 10 3 12 7 4 5 5 4 4 3 2 2 4 3 4 4
2 8 10 8 7 6 7 8 17 11 6 4 5 10 4 7 8 18 16 10 14 9 6 6 3 11 14 12 8 8 8 7 4 4 3 3 4 3 3 1 2 2 4 3
9 10 7 11 10 7 10 6 9 8 5 2 3 7 5 8 17 14 9 9 10 17 12 6 7 8 11 12 10 8 9 7 6 6 4 5 6 3 1 1 1 2 3 0
8 11 12 9 12 8 8 8 9 5 6 4 5 5 7 6 9 9 12 14 12 11 6 5 7 9 8 11 10 8 8 7 5 3 4 1 2 2 1 1 1 2 4 4
9 3 7 8 15 9 12 8 5 2 3 2 2 5 9 13 4 8 6 5 9 11 10 10 9 8 10 11 9 7 7 8 5 7 7 5 6 4 2 2 6 7 7 4
8 4 5 10 16 9 9 2 8 6 4 2 5 7 7 6 11 7 8 10 11 13 12 11 11 12 11 11 8 6 7 6 7 7 7 7 7 5 5 5 4 4 3 4
7 11 6 6 8 5 4 7 4 6 6 8 4 3 10 3 19 20 18 15 11 12 15 15 14 12 11 9 7 6 7 6 6 7 6 6 7 8 6 3 2 3 2 2
7 12 11 8 9 11 8 11 8 7 4 8 4 3 8 10 15 23 19 17 14 11 10 12 12 10 10 9 7 7 7 7 6 7 8 7 6 4 3 3 2 2 0 2
5 8 7 6 4 9 5 4 10 7 1 2 4 1 5 7 14 17 16 15 13 13 12 13 12 9 9 8 8 7 7 7 6 6 5 4 4 5 4 4 3 1 1 3
9 10 13 16 3 6 6 6 4 4 4 5 6 3 6 7 14 16 16 15 13 11 11 10 10 9 6 7 6 7 6 6 6 6 5 4 4 4 4 3 2 1 2 3
14 7 16 5 6 10 5 1 5 6 6 8 4 7 8 17 21 24 21 19 17 15 14 13 9 6 8 8 7 7 7 7 7 7 5 6 3 4 3 3 2 1 1 3
10 7 12 20 13 7 8 8 8 7 6 3 4 9 3 15 16 18 16 16 16 16 16 15 14 11 7 8 7 7 7 7 6 6 5 4 3 2 1 3 2 3 1 3
7 3 6 9 9 2 7 7 8 4 3 9 6 9 3 8 4 8 21 19 18 19 19 17 16 18 15 8 7 6 6 6 6 6 5 3 2 3 3 3 5 3 3 4
4 7 10 17 16 6 5 5 9 9 5 6 8 7 5 6 13 20 19 20 21 19 20 16 13 14 13 11 9 9 7 6 5 5 4 4 5 5 4 5 5 5 4 5
1 6 5 18 19 15 12 8 6 5 7 9 9 10 10 13 17 24 24 20 20 16 13 14 13 14 12 10 8 7 6 6 4 2 4 5 5 5 4 5 6 6 5 5
1 5 8 13 15 18 14 11 10 5 5 6 5 8 4 7 12 15 22 21 19 15 13 12 13 15 13 12 10 8 6 5 3 2 3 4 4 5 4 4 5 3 4 5
2 1 4 7 12 7 7 19 10 5 6 8 8 9 10 8 16 20 19 18 16 14 15 15 16 15 12 11 11 8 7 5 4 2 3 5 3 2 1 2 1 2 4 4
8 5 3 5 6 6 13 8 10 10 7 6 6 12 15 19 12 14 17 14 15 14 16 15 12 9 9 7 7 7 6 5 3 1 4 2 2 1 2 2 4 5 4 4
8 5 2 4 5 8 11 2 7 8 10 7 13 14 15 11 11 4 9 12 16 18 15 10 9 11 11 10 8 7 5 4 3 3 1 2 1 2 2 4 6 5 4 4
9 6 7 1 4 12 3 5 2 6 7 2 15 23 23 12 7 5 8 14 12 13 13 14 13 12 10 7 7 7 5 4 3 2 2 2 2 2 3 5 5 4 3 5
4 3 13 9 7 9 5 3 5 8 11 6 18 19 9 7 5 10 13 13 13 15 17 15 13 10 8 7 7 7 6 5 4 2 1 3 3 4 4 4 3 4 6 5
9 7 6 3 5 14 4 3 11 8 1 11 7 6 14 19 19 16 17 16 15 17 15 13 12 8 7 7 7 7 5 4 2 1 3 3 3 4 3 4 5 7 4 2
8 12 9 11 10 5 3 5 2 4 8 5 14 14 23 21 19 17 15 16 13 15 12 10 11 8 6 6 7 7 5 4 3 2 3 4 5 5 4 4 7 5 3 2
6 2 6 5 6 7 9 5 8 4 2 8 18 22 23 21 18 21 20 12 11 12 11 7 9 7 6 6 6 4 5 4 5 3 4 3 4 6 6 4 3 3 1 3
4 6 3 6 5 4 0 5 14 11 8 13 18 23 23 20 17 17 16 14 12 11 8 9 9 7 7 6 5 6 5 5 3 2 2 4 3 4 6 4 1 1 3 3
2 6 3 3 2 1 5 2 4 18 17 17 19 17 18 20 17 16 13 12 12 11 8 7 7 7 7 6 5 5 5 5 3 1 3 4 4 4 4 4 4 6 3 3
Wind_Direction
279 98 230 239 220 212 243 256 277 287 283 271 230 217 228 196 201 171 151 159 163 158 170 180 341 82 88 64 57 31 102 109 94 107 108 80 104 92 29 32 109 122 134 103
332 239 230 232 244 250 263 269 278 279 255 7 1 268 265 124 183 154 146 139 150 142 164 139 122 93 88 75 62 50 67 69 47 72 97 138 125 97 122 71 89 113 92 121
191 236 201 234 262 255 258 220 257 243 326 334 55 337 310 44 107 119 121 138 168 157 161 139 116 88 78 78 65 65 67 60 51 66 101 92 89 89 60 73 12 233 155 36
224 242 246 247 249 234 267 227 254 335 43 284 82 271 310 91 83 118 148 168 161 152 140 127 103 88 97 86 75 70 71 77 62 112 92 99 147 129 108 99 310 348 2 359
238 219 224 243 246 251 249 265 252 318 98 36 52 96 267 130 125 159 164 173 157 147 143 135 135 121 100 98 91 72 75 74 61 82 80 92 88 80 111 80 50 23 7 36
226 263 212 236 253 229 260 213 32 37 55 351 249 139 277 188 174 171 169 169 162 144 128 115 112 104 102 95 99 100 94 80 77 84 88 102 119 120 77 44 40 27 23 28
296 278 274 253 285 292 174 63 348 343 352 243 8 17 235 225 169 170 164 160 163 148 137 138 135 131 126 122 124 121 116 112 103 97 91 91 76 83 98 93 81 61 19 341
207 274 260 241 192 229 202 153 156 210 222 270 334 264 280 303 168 151 150 153 150 145 145 142 136 130 130 133 141 131 135 136 122 92 78 80 100 110 126 130 126 113 68 295
184 254 263 251 250 150 225 151 188 146 41 6 232 141 32 62 102 129 139 151 160 157 154 141 131 140 139 138 147 145 127 95 98 112 112 113 131 132 124 114 115 91 350 321
227 261 259 268 10 290 189 176 93 9 205 260 275 215 202 170 148 152 161 164 162 155 140 136 131 141 137 140 131 127 136 153 159 153 151 143 156 138 136 132 127 108 324 340
208 160 255 312 180 237 315 300 63 125 139 188 262 263 215 181 175 171 173 169 157 148 141 134 130 139 146 140 141 154 157 152 152 147 150 139 163 164 162 152 172 149 240 316
222 195 233 241 232 186 183 232 180 146 229 204 185 267 235 176 179 175 155 139 139 143 138 139 147 140 141 154 153 158 157 145 152 152 142 157 172 163 182 183 194 180 278 304
325 294 253 292 303 136 187 198 200 121 83 198 188 261 82 146 125 119 137 141 144 147 155 160 161 156 147 165 160 149 149 143 159 145 149 172 173 176 199 200 209 237 265 289
246 216 200 230 220 172 203 221 206 164 136 193 221 230 236 164 149 145 151 152 154 159 167 161 163 155 149 156 150 149 149 157 157 136 162 183 209 228 235 237 233 261 265 280
101 259 262 235 223 230 223 217 184 221 207 162 220 199 218 187 167 164 157 154 155 164 155 169 162 148 157 148 142 140 151 156 129 134 181 214 240 254 250 257 264 280 293 282
228 269 346 275 214 220 227 212 213 197 188 243 223 238 224 124 131 150 158 157 162 170 169 171 156 151 159 153 151 157 149 138 141 178 236 269 282 270 294 292 310 310 287 281
247 240 33 279 306 190 245 231 210 208 195 176 200 204 147 139 161 163 163 167 169 164 174 162 159 164 157 150 154 148 142 147 159 214 286 313 282 256 333 355 25 330 300 289
239 143 157 251 320 239 246 182 182 203 213 131 98 149 164 161 165 167 176 163 165 167 162 161 159 135 123 126 122 118 135 155 150 344 325 327 102 109 336 355 316 293 286 298
196 148 243 190 199 282 295 268 158 163 253 193 140 139 129 124 112 3 202 178 175 162 154 138 122 121 119 124 123 125 141 123 71 347 144 222 30 333 319 324 293 273 288 299
184 180 186 186 224 233 292 218 66 76 251 85 149 157 155 148 127 224 135 135 116 110 121 116 114 112 116 125 127 129 121 109 136 174 233 319 331 263 293 277 273 266 261 269
179 167 207 225 230 283 278 196 126 161 240 167 163 165 152 118 136 129 114 101 105 115 115 112 112 122 132 136 129 113 129 151 189 197 269 313 277 274 273 277 269 286 305 318
199 172 191 119 190 251 198 291 163 212 167 130 104 130 113 119 118 120 115 106 114 116 113 115 117 126 142 135 117 133 140 186 158 43 348 311 306 310 325 305 296 303 321 351
241 203 207 181 205 217 272 174 242 186 146 160 122 128 124 123 122 119 110 121 126 123 124 125 131 134 137 141 136 139 175 149 88 74 352 329 330 327 325 310 309 317 4 174
268 360 198 118 212 196 194 244 125 26 307 128 134 136 129 126 128 131 123 136 130 126 132 135 128 133 133 142 152 151 171 124 100 47 357 350 354 321 318 318 333 344 45 120
248 327 261 252 43 61 99 257 158 133 98 137 142 144 138 135 136 133 129 130 135 136 138 145 139 142 153 159 141 158 147 117 98 38 329 323 316 324 319 323 307 296 257 191
47 271 227 182 340 203 278 18 238 153 147 165 148 135 131 129 132 133 131 137 138 148 143 139 144 144 166 170 152 155 138 124 118 290 297 282 305 323 314 324 339 24 101 61